Bentonville, AR

7:45 PM CST on February 09, 2016 (GMT -0600)
Bentonville Municipal-Thaden

Weather History for KVBT - April, 2012

Change the Weather History Date:

Thursday, April 26, 2012

  Actual Average Record
Temperature  
Mean Temperature 73 °F -  
Max Temperature 84 °F 71 °F 85 °F (1954)
Min Temperature 62 °F 47 °F 32 °F (1976)
Cooling Degree Days 8    
Growing Degree Days 23 (Base 50)    
Moisture  
Dew Point 56 °F    
Average Humidity 61    
Maximum Humidity 100    
Minimum Humidity 30    
Precipitation  
Precipitation 0.00 in - - ()
Sea Level Pressure  
Sea Level Pressure 29.88 in    
Wind  
Wind Speed 6 mph (East)    
Max Wind Speed 14 mph    
Max Gust Speed 20 mph    
Visibility 9 miles    
Events      
Averages and records for this station are not official NWS values.
T = Trace of Precipitation, MM = Missing Value Source: NWS Daily Summary

Daily Weather History Graph

Daily Weather History Graph

Search for Another Location

Airport or City:

Trip Planner

Search our weather history database for the weather conditions in past years. The results will help you decide how hot, cold, wet, or windy it might be!

Date:

Astronomy

Apr. 26, 2012 Rise Set
Actual Time 6:28 AM CDT 8:00 PM CDT
Civil Twilight 6:01 AM CDT 8:28 PM CDT
Nautical Twilight 5:28 AM CDT 9:01 PM CDT
Astronomical Twilight 4:54 AM CDT 9:35 PM CDT
Moon 10:12 AM CDT (4/26) 12:02 AM CDT (4/26)
Length of Visible Light 14h 26m
Length of Day
13h 32m
Waxing Crescent, 24% of the Moon is Illuminated
Apr 26
Waxing Crescent
Apr 29
First Quarter
May 5
Full
May 12
Last Quarter
May 20
New

Hourly Weather History & Observations

Time (CDT) Temp. Heat Index Dew Point Humidity Pressure Visibility Wind Dir Wind Speed Gust Speed Precip Events Conditions
12:15 AM 69.8 °F - 64.4 °F 83% 29.79 in 10.0 mi SW 5.8 mph - N/A   Clear
12:35 AM 68.0 °F - 64.4 °F 88% 29.80 in 10.0 mi SW 4.6 mph - N/A   Clear
12:55 AM 68.0 °F - 64.4 °F 88% 29.80 in 10.0 mi SW 4.6 mph - N/A   Clear
1:15 AM 68.0 °F - 64.4 °F 88% 29.80 in 10.0 mi SSW 4.6 mph - N/A   Clear
1:35 AM 68.0 °F - 64.4 °F 88% 29.80 in 10.0 mi SW 6.9 mph - N/A   Clear
1:55 AM 68.0 °F - 64.4 °F 88% 29.80 in 10.0 mi SW 4.6 mph - N/A   Clear
2:35 AM 68.0 °F - 64.4 °F 88% 29.80 in 10.0 mi SW 5.8 mph - N/A   Clear
2:55 AM 68.0 °F - 64.4 °F 88% 29.80 in 10.0 mi SW 3.5 mph - N/A   Clear
3:15 AM 66.2 °F - 64.4 °F 94% 29.80 in 10.0 mi Calm Calm - N/A   Clear
3:35 AM 66.2 °F - 62.6 °F 88% 29.80 in 10.0 mi Calm Calm - N/A   Clear
3:55 AM 64.4 °F - 62.6 °F 94% 29.80 in 9.0 mi Calm Calm - N/A   Clear
4:15 AM 64.4 °F - 62.6 °F 94% 29.81 in 2.0 mi Calm Calm - N/A   Clear
4:35 AM 64.4 °F - 62.6 °F 94% 29.81 in 4.0 mi Calm Calm - N/A   Clear
4:55 AM 62.6 °F - 60.8 °F 94% 29.82 in 6.0 mi Calm Calm - N/A   Clear
5:15 AM 62.6 °F - 62.6 °F 100% 29.83 in 3.0 mi Calm Calm - N/A   Clear
5:35 AM 62.6 °F - 62.6 °F 100% 29.84 in 2.0 mi Calm Calm - N/A   Clear
5:55 AM 62.6 °F - 62.6 °F 100% 29.84 in 5.0 mi NNE 3.5 mph - N/A   Clear
6:15 AM 62.6 °F - 62.6 °F 100% 29.85 in 5.0 mi NNE 3.5 mph - N/A   Clear
6:35 AM 62.6 °F - 60.8 °F 94% 29.85 in 3.0 mi Calm Calm - N/A   Clear
6:55 AM 62.6 °F - 62.6 °F 100% 29.86 in 3.0 mi Calm Calm - N/A   Clear
7:15 AM 64.4 °F - 62.6 °F 94% 29.87 in 1.0 mi Calm Calm - N/A   Clear
7:35 AM 64.4 °F - 64.4 °F 100% 29.87 in 5.0 mi Calm Calm - N/A   Clear
7:55 AM 66.2 °F - 66.2 °F 100% 29.88 in 7.0 mi Calm Calm - N/A   Clear
8:15 AM 68.0 °F - 66.2 °F 94% 29.88 in 10.0 mi NNE 5.8 mph - N/A   Clear
8:35 AM 69.8 °F - 62.6 °F 78% 29.89 in 10.0 mi NE 9.2 mph - N/A   Clear
8:55 AM 71.6 °F - 62.6 °F 73% 29.90 in 10.0 mi NE 8.1 mph - N/A   Clear
9:15 AM 73.4 °F - 60.8 °F 65% 29.91 in 10.0 mi ENE 8.1 mph - N/A   Clear
9:35 AM 75.2 °F - 57.2 °F 53% 29.91 in 10.0 mi East 9.2 mph - N/A   Clear
9:55 AM 77.0 °F - 53.6 °F 44% 29.92 in 10.0 mi ENE 9.2 mph - N/A   Clear
10:15 AM 78.8 °F - 53.6 °F 42% 29.92 in 10.0 mi East 11.5 mph - N/A   Clear
10:35 AM 78.8 °F - 53.6 °F 42% 29.92 in 10.0 mi ENE 10.4 mph - N/A   Clear
10:55 AM 80.6 °F 80.5 °F 55.4 °F 42% 29.93 in 10.0 mi East 8.1 mph - N/A   Clear
11:15 AM 78.8 °F - 55.4 °F 44% 29.93 in 10.0 mi East 9.2 mph - N/A   Clear
11:35 AM 78.8 °F - 55.4 °F 44% 29.93 in 10.0 mi ESE 8.1 mph - N/A   Clear
11:55 AM 80.6 °F 80.3 °F 53.6 °F 39% 29.93 in 10.0 mi East 9.2 mph - N/A   Clear
12:15 PM 80.6 °F 80.3 °F 53.6 °F 39% 29.93 in 10.0 mi East 9.2 mph - N/A   Partly Cloudy
12:35 PM 80.6 °F 80.3 °F 53.6 °F 39% 29.92 in 10.0 mi ENE 11.5 mph - N/A   Partly Cloudy
12:55 PM 78.8 °F - 48.2 °F 34% 29.92 in 10.0 mi ENE 11.5 mph - N/A   Clear
1:15 PM 78.8 °F - 48.2 °F 34% 29.92 in 10.0 mi ENE 10.4 mph - N/A   Clear
1:35 PM 78.8 °F - 50.0 °F 36% 29.91 in 10.0 mi East 10.4 mph 16.1 mph N/A   Clear
1:55 PM 80.6 °F - 51.8 °F 37% 29.90 in 10.0 mi East 12.7 mph - N/A   Clear
2:15 PM 80.6 °F - 51.8 °F 37% 29.91 in 10.0 mi ENE 11.5 mph - N/A   Clear
2:35 PM 80.6 °F - 51.8 °F 37% 29.91 in 10.0 mi ENE 11.5 mph - N/A   Clear
2:55 PM 80.6 °F - 51.8 °F 37% 29.91 in 10.0 mi East 9.2 mph - N/A   Clear
3:15 PM 82.4 °F - 51.8 °F 35% 29.91 in 10.0 mi East 10.4 mph - N/A   Clear
3:35 PM 82.4 °F - 51.8 °F 35% 29.90 in 10.0 mi East 10.4 mph 18.4 mph N/A   Clear
3:55 PM 82.4 °F 81.4 °F 53.6 °F 37% 29.90 in 10.0 mi East 12.7 mph - N/A   Clear
4:15 PM 84.2 °F - 51.8 °F 33% 29.89 in 10.0 mi East 12.7 mph 17.3 mph N/A   Clear
4:35 PM 82.4 °F - 48.2 °F 30% 29.89 in 10.0 mi East 12.7 mph 19.6 mph N/A   Clear
4:55 PM 84.2 °F - 50.0 °F 30% 29.89 in 10.0 mi East 13.8 mph 18.4 mph N/A   Clear
5:15 PM 82.4 °F - 48.2 °F 30% 29.90 in 10.0 mi ESE 12.7 mph - N/A   Clear
5:35 PM 80.6 °F - 48.2 °F 32% 29.90 in 10.0 mi East 6.9 mph - N/A   Clear
5:55 PM 80.6 °F - 48.2 °F 32% 29.90 in 10.0 mi East 9.2 mph - N/A   Clear
6:15 PM 80.6 °F - 48.2 °F 32% 29.90 in 10.0 mi East 8.1 mph - N/A   Clear
6:35 PM 80.6 °F - 50.0 °F 34% 29.91 in 10.0 mi East 9.2 mph - N/A   Clear
6:55 PM 78.8 °F - 51.8 °F 39% 29.91 in 10.0 mi East 5.8 mph - N/A   Clear
7:15 PM 78.8 °F - 50.0 °F 36% 29.90 in 10.0 mi East 8.1 mph - N/A   Clear
7:35 PM 77.0 °F - 51.8 °F 41% 29.90 in 10.0 mi East 8.1 mph - N/A   Clear
7:55 PM 77.0 °F - 51.8 °F 41% 29.89 in 10.0 mi East 6.9 mph - N/A   Clear
8:15 PM 75.2 °F - 51.8 °F 44% 29.90 in 10.0 mi East 4.6 mph - N/A   Clear
8:35 PM 73.4 °F - 51.8 °F 47% 29.90 in 10.0 mi East 5.8 mph - N/A   Clear
8:55 PM 71.6 °F - 51.8 °F 50% 29.90 in 10.0 mi ENE 6.9 mph - N/A   Clear
9:15 PM 71.6 °F - 51.8 °F 50% 29.90 in 10.0 mi East 4.6 mph - N/A   Clear
9:35 PM 69.8 °F - 51.8 °F 53% 29.91 in 10.0 mi ENE 5.8 mph - N/A   Clear
9:55 PM 69.8 °F - 51.8 °F 53% 29.91 in 10.0 mi East 4.6 mph - N/A   Clear
10:15 PM 69.8 °F - 51.8 °F 53% 29.91 in 10.0 mi East 4.6 mph - N/A   Clear
10:35 PM 68.0 °F - 53.6 °F 60% 29.91 in 10.0 mi East 4.6 mph - N/A   Clear
10:55 PM 68.0 °F - 51.8 °F 56% 29.91 in 10.0 mi East 4.6 mph - N/A   Clear
11:15 PM 66.2 °F - 51.8 °F 60% 29.91 in 10.0 mi East 4.6 mph - N/A   Clear
11:35 PM 66.2 °F - 51.8 °F 60% 29.91 in 10.0 mi ESE 6.9 mph - N/A   Clear
11:55 PM 66.2 °F - 51.8 °F 60% 29.91 in 10.0 mi East 5.8 mph - N/A   Clear